EDT,Max TemperatureF,Mean TemperatureF,Min TemperatureF,Max Dew PointF,MeanDew PointF,Min DewpointF,Max Humidity, Mean Humidity, Min Humidity, Max Sea Level PressureIn, Mean Sea Level PressureIn, Min Sea Level PressureIn, Max VisibilityMiles, Mean VisibilityMiles, Min VisibilityMiles, Max Wind SpeedMPH, Mean Wind SpeedMPH, Max Gust SpeedMPH,PrecipitationIn, CloudCover, Events, WindDirDegrees
2011-10-1,72,61,49,51,43,35,83,55,27,30.01,29.90,29.80,10,10,10,20,10,25,0.00,0,,338
2011-10-2,70,58,46,50,44,41,89,64,39,30.08,30.03,29.98,10,10,10,16,5,23,0.00,1,,301
2011-10-3,74,61,47,49,43,31,100,62,23,30.16,30.11,30.05,10,10,10,12,4,25,0.00,0,,324
2011-10-4,77,63,49,55,49,44,93,64,35,30.24,30.19,30.15,10,10,10,14,4,17,0.00,0,,10
2011-10-5,79,66,53,58,53,49,100,68,35,30.25,30.20,30.16,10,10,10,12,4,16,0.00,1,Fog,6
2011-10-6,81,68,55,58,55,49,100,68,36,30.27,30.23,30.20,10,10,10,15,7,25,0.00,0,Fog,35
2011-10-7,81,71,60,64,57,51,93,65,36,30.34,30.30,30.25,10,10,10,20,11,24,0.00,2,,50
2011-10-8,80,72,63,63,57,49,100,71,42,30.38,30.32,30.27,10,10,10,21,12,25,T,5,,47
2011-10-9,76,70,63,70,64,56,90,79,68,30.25,30.19,30.11,10,9,2,25,15,33,0.04,7,Rain,50
2011-10-10,73,71,68,70,67,65,100,90,79,30.09,29.98,29.92,10,8,3,24,14,38,0.42,8,Rain,58
2011-10-11,77,71,65,70,68,64,100,91,82,29.91,29.85,29.82,10,9,5,20,9,26,0.09,7,Rain,23
2011-10-12,80,74,68,72,71,68,100,87,74,29.84,29.81,29.76,10,7,0,16,5,21,0.01,6,Fog-Rain,213
2011-10-13,81,72,62,72,67,59,100,77,54,29.79,29.74,29.66,10,8,1,22,8,30,0.39,5,Rain,238
2011-10-14,79,69,59,60,54,45,100,65,30,29.94,29.80,29.71,10,10,10,21,10,30,0.00,1,Rain,266
2011-10-15,84,71,57,61,51,47,87,59,31,30.06,30.00,29.95,10,10,10,16,8,23,0.00,1,,258
2011-10-16,79,65,50,57,50,40,96,61,26,30.17,30.10,30.06,10,10,10,10,4,14,0.00,0,,180
2011-10-17,84,69,53,64,58,53,100,70,40,30.05,29.98,29.91,10,10,10,13,5,13,0.00,0,Fog,209
2011-10-18,83,71,59,73,66,60,100,83,65,29.91,29.79,29.60,10,5,1,20,5,29,0.74,5,Fog-Rain,156
2011-10-19,83,67,50,74,64,41,100,79,57,29.72,29.50,29.39,10,8,3,28,11,35,0.21,6,Rain,234
2011-10-20,63,55,47,46,42,40,83,63,43,30.05,29.90,29.74,10,10,10,20,10,25,0.00,1,,254
2011-10-21,68,55,42,45,42,37,93,63,32,30.13,30.08,30.03,10,10,10,14,5,17,0.00,0,,271
2011-10-22,70,55,40,48,44,37,93,66,39,30.12,30.08,30.05,10,10,10,10,4,15,0.00,1,,348
2011-10-23,74,60,45,55,50,44,100,73,46,30.12,30.08,30.04,10,10,10,12,4,15,0.00,2,,11
2011-10-24,74,63,51,55,51,47,96,69,41,30.14,30.08,30.04,10,10,10,16,5,21,0.00,2,,344
2011-10-25,76,63,49,53,49,44,96,65,33,30.24,30.19,30.13,10,10,9,18,5,24,0.00,0,Fog,50
2011-10-26,79,63,47,57,52,47,100,68,35,30.19,30.09,30.00,10,10,7,14,4,20,0.00,0,Fog,219
2011-10-27,80,69,57,62,58,52,97,67,36,30.00,29.93,29.86,10,10,10,17,6,22,0.00,3,Fog,243
2011-10-28,74,66,57,62,58,53,97,79,61,30.00,29.95,29.92,10,10,7,15,7,21,0.00,5,,69
2011-10-29,63,54,45,53,47,32,100,74,47,30.15,29.95,29.88,10,8,0,24,12,29,0.01,5,Rain,350
2011-10-30,63,51,39,41,35,31,82,56,30,30.31,30.26,30.16,10,10,10,18,7,25,0.00,1,,54
2011-10-31,65,56,47,52,47,40,96,80,64,30.28,30.18,30.11,10,10,10,14,10,16,0.00,6,,18